Location: Jalan Sepang
(2.8072°N, 101.8021°E)
Time: 05:42:03
(UTC+00:00)

CZ-3 R/B - Pass Details

Date: 15 May 2026
Orbit: 564 x 9992 km, 28.2° (Epoch: 2 June)

Event Time Altitude Azimuth Distance (km) Brightness Sun altitude
Rises 22:23:12 0° 299° (WNW) 9,241 6.1 -9.9°
Reaches altitude 10° 22:31:51 10° 298° (WNW) 6,559 5.4 -7.9°
Maximum altitude 22:47:17 78° 213° (SSW) 1,336 2.2 -4.3°
Drops below altitude 10° 22:52:28 10° 126° (SE) 2,386 4.1 -3.0°
Sets 22:54:09 0° 124° (SE) 3,074 4.7 -2.6°
